View from above orbital plane
|
View from above satellite
|
Ground track
|
The orbit data is extracted from the following two-line orbital elements,
1 24298U 96051B 21106.82814501 -.00000165 00000-0 -63025-4 0 9999
2 24298 70.8349 350.9199 0018524 261.5249 98.3772 14.12454953269453
Epoch (UTC): | 16 April 2021 19:52:31 |
Eccentricity: | 0.0018524 |
inclination: | 70.8349° |
perigee height: | 837 km |
apogee height: | 864 km |
right ascension of ascending node: | 350.9199° |
argument of perigee: | 261.5249° |
revolutions per day: | 14.12454953 |
mean anomaly at epoch: | 98.3772° |
orbit number at epoch: | 26945 |
The dashed part of the orbit path shows where the satellite is in the earth's shadow,
|
|